Weather History for Sheridan, WY

Change the Weather History Date:

Wednesday, February 20, 2013

  Actual Average Record
Temperature  
Mean Temperature 16 °F 28 °F  
Max Temperature 25 °F 40 °F 68 °F (1982)
Min Temperature 7 °F 15 °F -19 °F (1918)
Degree Days  
Heating Degree Days 49 37  
Month to date heating degree days 792 784  
Since 1 July heating degree days 4987 5244  
Cooling Degree Days 0 0  
Month to date cooling degree days 0 0  
Year to date cooling degree days 0 0  
Moisture  
Dew Point 14 °F    
Average Humidity 83    
Maximum Humidity 92    
Minimum Humidity 74    
Precipitation  
Precipitation 0.00 in 0.02 in 0.31 in (1957)
Month to date precipitation 0.62 0.38  
Year to date precipitation 1.58 0.94  
Sea Level Pressure  
Sea Level Pressure 29.91 in    
Wind  
Wind Speed 7 mph (WNW)    
Max Wind Speed 21 mph    
Max Gust Speed 24 mph    
Visibility 10 miles    
Events      
T = Trace of Precipitation, MM = Missing Value Source: NWS Daily Summary

Daily Weather History Graph

Daily Weather History Graph

Search for Another Location

Airport:

Trip Planner

Search our weather history database for the weather conditions in past years. The results will help you decide how hot, cold, wet, or windy it might be!

Date:

Astronomy

Feb. 20, 2013 Rise Set
Actual Time 7:00 AM MST 5:43 PM MST
Civil Twilight 6:30 AM MST 6:13 PM MST
Nautical Twilight 5:56 AM MST 6:47 PM MST
Astronomical Twilight 5:22 AM MST 7:21 PM MST
Moon 1:00 PM MST (2/20) 3:30 AM MST (2/20)
Length of Visible Light 11h 43m
Length of Day
10h 43m
Waxing Gibbous, 76% of the Moon is Illuminated
Feb 20
Waxing Gibbous
Feb 25
Full
Mar 4
Last Quarter
Mar 11
New
Mar 19
First Quarter

Hourly Weather History & Observations

Time (MST) Temp. Windchill Dew Point Humidity Pressure Visibility Wind Dir Wind Speed Gust Speed Precip Events Conditions
12:53 AM 12.9 °F - 9.0 °F 84% 29.89 in 10.0 mi Calm Calm - N/A   Clear
1:53 AM 15.1 °F - 10.0 °F 80% 29.89 in 10.0 mi Calm Calm - N/A   Clear
2:53 AM 15.1 °F 9.4 °F 10.9 °F 84% 29.88 in 10.0 mi SW 3.5 mph - N/A   Clear
3:53 AM 12.0 °F - 9.0 °F 88% 29.89 in 10.0 mi Calm Calm - N/A   Clear
4:53 AM 17.1 °F 4.3 °F 12.0 °F 81% 29.88 in 10.0 mi WNW 11.5 mph - N/A   Clear
5:53 AM 12.9 °F - 9.0 °F 84% 29.91 in 10.0 mi Calm Calm - N/A   Clear
6:53 AM 10.0 °F 3.6 °F 7.0 °F 87% 29.93 in 10.0 mi SSW 3.5 mph - N/A   Clear
7:53 AM 10.9 °F - 8.1 °F 88% 29.95 in 10.0 mi Calm Calm - N/A   Clear
8:53 AM 12.0 °F - 9.0 °F 88% 29.95 in 10.0 mi Calm Calm - N/A   Clear
9:53 AM 23.0 °F 13.9 °F 16.0 °F 74% 29.92 in 10.0 mi WNW 8.1 mph - N/A   Clear
10:53 AM 25.0 °F 14.8 °F 18.0 °F 75% 29.92 in 10.0 mi WNW 10.4 mph - N/A   Clear
11:53 AM 25.0 °F 13.6 °F 18.0 °F 75% 29.91 in 10.0 mi NW 12.7 mph - N/A   Clear
12:53 PM 24.1 °F 10.1 °F 18.0 °F 77% 29.91 in 10.0 mi WNW 18.4 mph - N/A   Clear
1:53 PM 25.0 °F 12.2 °F 18.0 °F 75% 29.90 in 10.0 mi WNW 16.1 mph - N/A   Clear
2:53 PM 24.1 °F 13.1 °F 18.0 °F 77% 29.91 in 10.0 mi WNW 11.5 mph - N/A   Clear
3:36 PM 24.8 °F 14.6 °F 17.6 °F 74% 29.76 in 10.0 mi West 10.4 mph - N/A   Mostly Cloudy
3:53 PM 23.0 °F 12.4 °F 17.1 °F 78% 29.93 in 10.0 mi West 10.4 mph - N/A   Mostly Cloudy
4:09 PM 21.2 °F 9.5 °F 17.6 °F 86% 29.76 in 10.0 mi West 11.5 mph - N/A   Partly Cloudy
4:53 PM 19.9 °F 7.3 °F 15.1 °F 81% 29.92 in 10.0 mi WNW 12.7 mph - N/A   Clear
5:53 PM 18.0 °F - 14.0 °F 84% 29.95 in 10.0 mi Calm Calm - N/A   Clear
6:14 PM 19.4 °F - 14.0 °F 80% 29.78 in 10.0 mi Calm Calm - N/A   Mostly Cloudy
6:53 PM 19.0 °F 8.2 °F 15.1 °F 85% 29.98 in 10.0 mi WNW 9.2 mph - N/A   Overcast
7:53 PM 19.9 °F 14.9 °F 15.1 °F 81% 29.98 in 10.0 mi Variable 3.5 mph - N/A   Overcast
8:53 PM 19.9 °F 7.9 °F 16.0 °F 85% 29.99 in 10.0 mi WNW 11.5 mph - N/A   Overcast
9:53 PM 21.0 °F 11.4 °F 16.0 °F 81% 29.97 in 10.0 mi WNW 8.1 mph - N/A   Overcast
10:53 PM 21.0 °F 11.4 °F 16.0 °F 81% 29.97 in 10.0 mi NW 8.1 mph - N/A   Overcast
11:53 PM 21.0 °F 9.3 °F 16.0 °F 81% 29.97 in 10.0 mi WNW 11.5 mph - N/A   Overcast